Terug naar catalogus

ONEWEB-0285

ActiefCommunicatiePO
NORAD 49075·PAYLOAD·🇬🇧 United Kingdom

Gelanceerd Aug 21, 2021 vanaf Baikonur Cosmodrome

Loading…

Volgende Passages (komende 24 uur)

TLE

VersSource: CelesTrak SupGP

Epoch: Sep 14, 2026, 15:42 UTC

1 49075C 21075A   26257.65466850  .00001927  00000+0  53630-2 0  2576
2 49075  87.8990 332.9029 0001938 106.9579 327.4707 13.12446640    16

Volg ONEWEB-0285 in realtime met AllMySat

Download on the App Store